User: anonymous   Login
Location: Unspecified
(0.0000°N, 0.0000°E)
Time: 04:54:20
(UTC+01:00)
Language:

Cosmos 2082 Rocket - Orbit

View from above orbital plane
View from above orbital plane
View from above satellite
View from above satellite

Ground track
Ground track

The orbit data is extracted from the following two-line orbital elements,

1 20625U 90046B   16037.76504501  .00000294  00000-0  17787-3 0  9997
2 20625  70.9994 111.0062 0013202 149.1006 349.6145 14.14590726327637
Epoch (UTC): 06 February 2016 18:21:39
Eccentricity: 0.0013202
inclination: 70.9994°
perigee height: 834 km
apogee height: 853 km
right ascension of ascending node: 111.0062°
argument of perigee: 149.1006°
revolutions per day: 14.14590726
mean anomaly at epoch: 349.6145°
orbit number at epoch: 32763

The dashed part of the orbit path shows where the satellite is in the earth's shadow,  

DLR